Find Starlink 37259

NORAD ID: 68972 Int'l Des: 2026-099 Owner: SPXS Country: US Constellation: starlink operational
LEOCIRCULAR

实时位置

正在加载3D地球...

关于 Starlink 37259

正在加载描述...

即将过境

Passes for default location (London). Set your location on the main map for personalized predictions.

高度历史

Loading altitude history...

两行轨道根数

1 68972C 26099X 26125.77062500 -.01425600 00000+0 -21743-2 0 1250
2 68972 53.1618 7.5607 0000448 104.0133 123.0680 16.04419725 11
Epoch: May 5, 2026 • Age: 31 hours

当前状态

高度 272.4 km
速度 7.75 km/s
星下点 51.93°N, 137.12°E
发射日期 May 1, 2026
运行时间 4 days
类型 internet

技术详情

分类 Payload
质量 575.00 kg
干质量 530.00 kg
总质量 575.00 kg
长度 0.30 m
直径 4.10 m
跨度 29.00 m
形状 Box + pan
制造商 SPXS
平台类型 Starlink V2MO
阶段状态 In Orbit
所有者/国家 SPXS/US

Most Searched